TimeMST,TemperatureF,Dew PointF,Humidity,Sea Level PressureIn,VisibilityMPH,Wind Direction,Wind SpeedMPH,Gust SpeedMPH,PrecipitationIn,Events,Conditions,WindDirDegrees,DateUTC
12:15 AM,46.4,19.4,34,29.79,10.0,South,10.4,-,N/A,,Clear,170,2013-02-24 07:15:00
12:35 AM,44.6,17.6,34,29.79,10.0,SSE,10.4,-,N/A,,Clear,160,2013-02-24 07:35:00
12:55 AM,44.6,19.4,37,29.79,10.0,South,8.1,-,N/A,,Clear,170,2013-02-24 07:55:00
1:15 AM,44.6,19.4,37,29.78,10.0,SSE,12.7,-,N/A,,Clear,150,2013-02-24 08:15:00
1:35 AM,44.6,19.4,37,29.78,10.0,SSE,11.5,-,N/A,,Clear,160,2013-02-24 08:35:00
1:55 AM,44.6,19.4,37,29.77,10.0,SSE,12.7,-,N/A,,Clear,150,2013-02-24 08:55:00
2:15 AM,46.4,19.4,34,29.76,10.0,SSE,11.5,-,N/A,,Clear,160,2013-02-24 09:15:00
2:55 AM,46.4,17.6,32,29.76,10.0,South,9.2,-,N/A,,Clear,180,2013-02-24 09:55:00
3:15 AM,42.8,17.6,36,29.75,10.0,South,6.9,-,N/A,,Clear,170,2013-02-24 10:15:00
3:35 AM,44.6,17.6,34,29.75,10.0,SSE,10.4,-,N/A,,Clear,160,2013-02-24 10:35:00
3:55 AM,41.0,17.6,39,29.74,10.0,South,9.2,-,N/A,,Clear,170,2013-02-24 10:55:00
4:15 AM,44.6,17.6,34,29.75,10.0,SSE,12.7,-,N/A,,Clear,160,2013-02-24 11:15:00
4:35 AM,42.8,19.4,39,29.74,10.0,SE,11.5,-,N/A,,Clear,140,2013-02-24 11:35:00
4:55 AM,41.0,23.0,49,29.74,10.0,SSE,13.8,-,N/A,,Clear,150,2013-02-24 11:55:00
5:15 AM,41.0,17.6,39,29.75,10.0,SSE,9.2,-,N/A,,Clear,160,2013-02-24 12:15:00
5:35 AM,41.0,23.0,49,29.75,10.0,South,8.1,-,N/A,,Clear,170,2013-02-24 12:35:00
5:55 AM,42.8,17.6,36,29.75,10.0,SSE,9.2,-,N/A,,Clear,160,2013-02-24 12:55:00
6:15 AM,41.0,14.0,33,29.74,10.0,SW,6.9,-,N/A,,Clear,230,2013-02-24 13:15:00
6:35 AM,39.2,17.6,42,29.75,10.0,SSW,6.9,-,N/A,,Clear,200,2013-02-24 13:35:00
6:55 AM,41.0,17.6,39,29.74,9.0,SSE,11.5,-,N/A,,Clear,160,2013-02-24 13:55:00
7:15 AM,41.0,19.4,42,29.75,10.0,South,6.9,-,N/A,,Clear,170,2013-02-24 14:15:00
7:35 AM,42.8,21.2,42,29.75,10.0,SSE,10.4,-,N/A,,Clear,160,2013-02-24 14:35:00
7:55 AM,46.4,19.4,34,29.76,10.0,SSE,10.4,-,N/A,,Clear,160,2013-02-24 14:55:00
8:15 AM,48.2,21.2,34,29.76,10.0,SSE,12.7,-,N/A,,Clear,160,2013-02-24 15:15:00
8:35 AM,50.0,19.4,30,29.76,9.0,South,15.0,-,N/A,,Clear,170,2013-02-24 15:35:00
8:55 AM,51.8,19.4,28,29.76,10.0,South,17.3,23.0,N/A,,Clear,190,2013-02-24 15:55:00
9:15 AM,53.6,17.6,24,29.76,10.0,SSW,16.1,25.3,N/A,,Clear,210,2013-02-24 16:15:00
9:35 AM,53.6,17.6,24,29.75,10.0,South,15.0,18.4,N/A,,Clear,190,2013-02-24 16:35:00
9:55 AM,55.4,15.8,21,29.74,10.0,SW,17.3,31.1,N/A,,Clear,230,2013-02-24 16:55:00
10:15 AM,55.4,15.8,21,29.73,10.0,SSW,23.0,29.9,N/A,,Clear,210,2013-02-24 17:15:00
10:35 AM,55.4,15.8,21,29.72,10.0,SW,15.0,25.3,N/A,,Clear,220,2013-02-24 17:35:00
10:55 AM,55.4,15.8,21,29.71,10.0,WSW,20.7,26.5,N/A,,Clear,240,2013-02-24 17:55:00
11:15 AM,55.4,15.8,21,29.71,10.0,SSW,21.9,29.9,N/A,,Clear,210,2013-02-24 18:15:00
11:35 AM,55.4,15.8,21,29.70,10.0,SW,20.7,29.9,N/A,,Scattered Clouds,230,2013-02-24 18:35:00
11:55 AM,55.4,15.8,21,29.68,10.0,WSW,21.9,26.5,N/A,,Mostly Cloudy,250,2013-02-24 18:55:00
12:15 PM,55.4,15.8,21,29.67,10.0,WSW,24.2,31.1,N/A,,Mostly Cloudy,240,2013-02-24 19:15:00
12:35 PM,55.4,15.8,21,29.65,10.0,WSW,19.6,32.2,N/A,,Mostly Cloudy,250,2013-02-24 19:35:00
12:55 PM,53.6,15.8,22,29.65,10.0,SW,23.0,32.2,N/A,,Scattered Clouds,230,2013-02-24 19:55:00
1:15 PM,55.4,19.4,25,29.66,10.0,SW,17.3,36.8,N/A,,Partly Cloudy,230,2013-02-24 20:15:00
1:35 PM,53.6,17.6,24,29.63,10.0,WSW,10.4,24.2,N/A,,Partly Cloudy,240,2013-02-24 20:35:00
1:55 PM,53.6,17.6,24,29.63,10.0,WSW,11.5,-,N/A,,Scattered Clouds,240,2013-02-24 20:55:00
2:15 PM,51.8,17.6,26,29.64,1.2,West,25.3,40.3,N/A,,Haze,270,2013-02-24 21:15:00
2:35 PM,50.0,19.4,30,29.65,3.0,West,27.6,35.7,N/A,,Haze,270,2013-02-24 21:35:00
2:55 PM,48.2,19.4,32,29.66,5.0,West,27.6,42.6,N/A,,Haze,260,2013-02-24 21:55:00
3:15 PM,50.0,15.8,26,29.66,4.0,West,21.9,32.2,N/A,,Haze,260,2013-02-24 22:15:00
3:35 PM,50.0,14.0,24,29.67,4.0,West,29.9,39.1,N/A,,Haze,270,2013-02-24 22:35:00
3:55 PM,48.2,12.2,24,29.66,5.0,West,24.2,33.4,N/A,,Haze,270,2013-02-24 22:55:00
4:15 PM,46.4,14.0,27,29.68,5.0,West,19.6,25.3,N/A,,Haze,280,2013-02-24 23:15:00
4:35 PM,46.4,6.8,20,29.68,4.0,West,20.7,32.2,N/A,,Haze,270,2013-02-24 23:35:00
4:55 PM,46.4,10.4,23,29.70,5.0,NNW,13.8,32.2,N/A,,Haze,330,2013-02-24 23:55:00
5:15 PM,41.0,23.0,49,29.71,10.0,NNW,16.1,-,N/A,,Clear,340,2013-02-25 00:15:00
5:35 PM,41.0,23.0,49,29.73,10.0,NNW,10.4,16.1,N/A,,Clear,330,2013-02-25 00:35:00
5:55 PM,37.4,21.2,52,29.76,8.0,WNW,17.3,25.3,N/A,,Clear,300,2013-02-25 00:55:00
6:15 PM,35.6,23.0,60,29.77,10.0,NW,17.3,25.3,N/A,,Partly Cloudy,320,2013-02-25 01:15:00
6:35 PM,35.6,23.0,60,29.78,10.0,NNW,12.7,20.7,N/A,,Mostly Cloudy,330,2013-02-25 01:35:00
6:55 PM,35.6,23.0,60,29.79,10.0,NNW,11.5,20.7,N/A,,Mostly Cloudy,330,2013-02-25 01:55:00
7:15 PM,35.6,23.0,60,29.80,10.0,North,12.7,-,N/A,,Mostly Cloudy,350,2013-02-25 02:15:00
7:35 PM,35.6,23.0,60,29.81,10.0,North,6.9,-,N/A,,Mostly Cloudy,10,2013-02-25 02:35:00
7:55 PM,35.6,23.0,60,29.82,10.0,North,5.8,-,N/A,,Mostly Cloudy,10,2013-02-25 02:55:00
8:15 PM,37.4,23.0,56,29.82,10.0,North,8.1,-,N/A,,Mostly Cloudy,350,2013-02-25 03:15:00
8:35 PM,37.4,21.2,52,29.83,10.0,NNE,5.8,-,N/A,,Partly Cloudy,20,2013-02-25 03:35:00
8:55 PM,35.6,19.4,52,29.83,10.0,North,5.8,-,N/A,,Clear,10,2013-02-25 03:55:00
9:15 PM,35.6,19.4,52,29.84,10.0,NNW,5.8,-,N/A,,Clear,340,2013-02-25 04:15:00
9:35 PM,33.8,19.4,56,29.84,10.0,NW,4.6,-,N/A,,Clear,320,2013-02-25 04:35:00
9:55 PM,32.0,19.4,60,29.85,10.0,NW,6.9,-,N/A,,Clear,320,2013-02-25 04:55:00
10:15 PM,32.0,19.4,60,29.86,10.0,NW,6.9,-,N/A,,Clear,320,2013-02-25 05:15:00
10:35 PM,32.0,19.4,60,29.86,10.0,NNW,6.9,-,N/A,,Clear,330,2013-02-25 05:35:00
10:55 PM,30.2,19.4,64,29.87,10.0,North,5.8,-,N/A,,Clear,360,2013-02-25 05:55:00
11:15 PM,32.0,15.8,51,29.88,10.0,NNW,9.2,-,N/A,,Clear,330,2013-02-25 06:15:00
11:55 PM,32.0,21.2,64,29.90,9.0,North,25.3,35.7,N/A,,Scattered Clouds,360,2013-02-25 06:55:00